Terminal Aerodrome Forecast
Issued by NWS Chicago, IL

Home | Current Version | Previous Version | Graphics & Text | Print | Product List | Glossary On
Versions: 1 2 3 4 5 6 7 8 9 10 11 12 13 14 15 16 17 18 19 20 21 22 23 24 25 26
000
FTUS43 KLOT 200904 AAA
TAFRFD
TAF AMD
KRFD 200904Z 2009/2106 07011KT P6SM OVC018
     FM201400 08012G18KT 6SM -SHRA BR SCT007 OVC015
     FM201700 11013G20KT 6SM -DZ BR VCSH OVC007
     FM202100 13012KT P6SM BKN015
     FM210000 17010KT P6SM BKN035=

USA.gov is the U.S. government's official web portal to all federal, state and local government web resources and services.